2020-085A (46929 NORAD) Tracking and Keplerian Element Data

This shows tracking and keplerian element data for the satellite.

Feedback or suggestion? Click here.




ElementValue
Catalog46929
Name2020-085A
Epoch Orbit456
Epoch Day355.12759234
Epoch Year2020
RAAN129.1349
Inclination97.3705
Eccentricity0.0012028
Argument of Perigee184.433
Mean Anonmoly224.0473
Mean Motion15.21410237
Decay Rate2.187E-05
L11 46929U 20085A 20355.12759234 .00002187 00000-0 10036-3 0 9994
L22 46929 97.3705 129.1349 0012028 184.4330 224.0473 15.21410237 4561

Live tracking and technical data element details for 2020-085A (NORAD 46929). 2020-085A can be tracked NOW for your location showing map with azimuth and elevation plus other details from your city location.

Track the satellite on the map from your city or location and see movement details for azimuth, elevation, latitude, longitude, range, height, and movement on the map or in text.







IsCatalogInMostPopularTable: catalog: 46929, numindb: 21
Update: records affected: 1



GetName: 46929 2020-085A

Hit Count: updated at: Tue, 19 Jan 2021 02:06:52 GMT